This is the latest recevied weather packets stored in our database for station/object KM4CNW. If no packets are shown the sender has not sent any weather packets the latest 10 day(s).
| Time | Temp. | Humidity | Pressure | Rain* | Wind** | Luminosity | Snow |
|---|---|---|---|---|---|---|---|
| 1777378802 | 12.22° C | 92% | 1018.4 hPa | 3.05 mm | - | 16 W/m² | - |
| 1777378500 | 12.22° C | 93% | 1018.4 hPa | 0 mm | - | 19 W/m² | - |
| 1777378195 | 12.22° C | 93% | 1018.5 hPa | 1.27 mm | - | 22 W/m² | - |
| 1777377894 | 12.22° C | 92% | 1018.4 hPa | 1.27 mm | - | 19 W/m² | - |
| 1777377593 | 12.22° C | 92% | 1018.3 hPa | 0 mm | - | 13 W/m² | - |
| 1777377289 | 12.22° C | 92% | 1018.3 hPa | 0 mm | - | 15 W/m² | - |
| 1777376986 | 12.22° C | 91% | 1018.3 hPa | 0 mm | - | 10 W/m² | - |
| 1777376683 | 12.22° C | 91% | 1018.3 hPa | 0 mm | - | 10 W/m² | - |
| 1777376380 | 12.22° C | 90% | 1017.9 hPa | 0 mm | - | 8 W/m² | - |
| 1777376080 | 12.22° C | 89% | 1018 hPa | 1.78 mm | - | 8 W/m² | - |
| 1777375780 | 12.78° C | 88% | 1018.2 hPa | 1.78 mm | - | 11 W/m² | - |
| 1777375475 | 12.78° C | 86% | 1018 hPa | 0 mm | - | 5 W/m² | - |
| 1777375172 | 12.78° C | 85% | 1018.7 hPa | 0 mm | - | 4 W/m² | - |
| 1777374872 | 12.78° C | 86% | 1018.5 hPa | 0 mm | - | 4 W/m² | - |
| 1777374568 | 12.78° C | 86% | 1018.4 hPa | 0 mm | - | 7 W/m² | - |
| 1777374265 | 12.78° C | 86% | 1018.6 hPa | 0 mm | - | 6 W/m² | - |
| 1777373961 | 12.22° C | 87% | 1019 hPa | 0 mm | - | 4 W/m² | - |
| 1777373658 | 12.22° C | 87% | 1018.3 hPa | 0 mm | - | 4 W/m² | - |
| 1777373355 | 12.22° C | 88% | 1018.2 hPa | 0 mm | - | 2 W/m² | - |
| 1777373050 | 12.22° C | 88% | 1018.1 hPa | 0 mm | - | 1 W/m² | - |
| 1777372746 | 11.67° C | 88% | 1018 hPa | 0 mm | - | 0 W/m² | - |
| 1777372445 | 11.67° C | 88% | 1017.7 hPa | 0 mm | - | 0 W/m² | - |
| 1777372143 | 11.67° C | 89% | 1017.2 hPa | 0 mm | - | 0 W/m² | - |
| 1777371840 | 11.67° C | 89% | 1016.5 hPa | 0 mm | - | 0 W/m² | - |
| 1777371536 | 11.67° C | 89% | 1016.2 hPa | 0 mm | - | 0 W/m² | - |
* Rain latest hour (hover to see other rain measurements)
** Current wind speed in m/s (hover to see current wind gust speed)